Location: Aufkirchen
(47.9603°N, 11.3653°E)
Time: 07:13:18
(UTC+01:00)

Courier 1B - All Passes

Search period start: 27 November 2020 00:00
Search period end: 07 December 2020 00:00
Orbit: 962 x 1209 km, 28.3° (Epoch: 26 November)

Date Brightness Start Highest point End Pass type
(mag) Time Alt. Az. Time Alt. Az. Time Alt. Az.
27 Nov - 00:24:54 10° SSW 00:28:43 15° S 00:32:37 10° SE night (unlit)
27 Nov - 02:17:46 10° SW 02:21:30 15° S 02:25:20 10° SSE night (unlit)
27 Nov - 23:32:01 10° SSW 23:35:14 13° S 23:38:31 10° SE night (unlit)
28 Nov - 01:24:05 10° SW 01:27:59 15° S 01:31:58 10° SSE night (unlit)
28 Nov - 22:39:35 10° S 22:41:46 12° SSE 22:44:00 10° SSE night (unlit)
29 Nov - 00:30:39 10° SSW 00:34:28 15° S 00:38:23 10° SSE night (unlit)
29 Nov - 02:25:05 10° SSW 02:27:14 11° SSW 02:29:22 10° S night (unlit)
29 Nov - 23:37:23 10° SSW 23:40:58 15° S 23:44:39 10° SE night (unlit)
30 Nov - 01:30:48 10° SW 01:33:43 13° SSW 01:36:41 10° SSE night (unlit)
30 Nov - 22:44:22 10° SSW 22:47:31 14° S 22:50:43 10° SE night (unlit)
01 Dec - 00:36:58 10° SW 00:40:13 14° S 00:43:33 10° SSE night (unlit)
01 Dec - 21:51:41 10° S 21:54:04 12° SSE 21:56:30 10° SSE night (unlit)
01 Dec - 23:43:24 10° SSW 23:46:44 14° S 23:50:10 10° SSE night (unlit)
02 Dec - 21:00:04 10° S 21:00:41 10° SSE 21:01:17 10° SSE night (unlit)
02 Dec - 22:50:02 10° SSW 22:53:17 14° S 22:56:37 10° SSE night (unlit)
03 Dec - 00:44:38 10° SSW 00:45:58 11° SSW 00:47:19 10° S night (unlit)
03 Dec - 21:56:53 10° SSW 21:59:51 13° S 22:02:53 10° SSE night (unlit)
03 Dec - 23:50:14 10° SSW 23:52:31 12° S 23:54:50 10° S night (unlit)
04 Dec - 21:03:57 10° SSW 21:06:26 12° S 21:08:57 10° SSE visible
04 Dec - 22:56:24 10° SSW 22:59:04 13° S 23:01:48 10° SSE night (unlit)
05 Dec - 20:11:29 10° S 20:13:03 11° SSE 20:14:36 10° SSE visible
05 Dec - 22:02:50 10° SSW 22:05:39 13° S 22:08:30 10° SSE night (unlit)
06 Dec - 21:09:28 10° SSW 21:12:14 13° S 21:15:01 10° SSE visible
